[[{"header":{"parameterUnit":"m.s-1","parameterCategory":1,"la1":30.2991,"la2":30.254,"lo1":-89.0895,"lo2":-89.0444,"dy":0.0017,"dx":0.0017,"nx":28,"ny":28,"refTime":"2025-07-27T03:00:00:Z","depth":0,"parameterNumber":2,"parameterNumberName":"U-component_of_WINDS"},"data":[0,0,0,0,0,0,0,0,0,0,0,0,0,0,0,0,0,0,0,0,0,0,0,0,0,0,0,0,0,0,0,0,0,0,0,0,0,0,0,0,0,0,0,0,0,0,0,0,0,0,0,0,0,0,0,0,0,0,0.3327,0.3327,0,0.3327,0.3327,0.3327,0.3328,0.3328,0.3328,0.3328,0.3328,0.3328,0.3328,0,0,0,0,0,0,0,0,0,0,0,0,0,0.3324,0.3324,0.3327,0.3327,0.3327,0.3327,0.3327,0.3327,0.3328,0.3328,0.3328,0.3328,0.3328,0.3328,0.3328,0,0,0,0,0,0,0,0,0,0,0,0,0,0.3325,0.3324,0.3327,0.3327,0.3327,0.3327,0.3327,0.3327,0.3328,0.3328,0.3328,0.3328,0.3328,0.3328,0.3328,0.3327,0,0,0.3328,0.3328,0,0,0,0,0,0,0,0,0.3325,0.3325,0.3327,0.3327,0.3327,0.3327,0.3326,0.3327,0.3328,0.3328,0.3328,0.3328,0.3328,0.3328,0.3328,0.3327,0.3327,0.3328,0.3328,0.3328,0.3328,0,0,0,0,0,0,0,0.3325,0.3325,0.3327,0.3327,0.3327,0.3327,0.3327,0.3326,0.3327,0.3328,0.3328,0.3328,0.3328,0.3328,0.3328,0.3327,0.3328,0.3328,0.3328,0.3328,0.3325,0.3324,0,0,0,0,0,0,0.3325,0.3325,0.3327,0.3327,0.3326,0.3327,0.3327,0.3327,0.3327,0.3327,0.3328,0.3328,0.3328,0.3328,0.3328,0.3326,0.3328,0.3328,0.3328,0.3325,0.3325,0.3324,0,0,0,0,0,0,0.3325,0.3325,0.3327,0.3326,0.3326,0.3327,0.3327,0.3327,0.3327,0.3328,0.3328,0.3328,0.3328,0.3328,0.3327,0.3326,0.3328,0.3328,0.3325,0.3325,0.3324,0.3323,0,0,0,0,0,0,0.3325,0.3325,0.3326,0.3326,0.3326,0.3327,0.3327,0.3327,0.3327,0.3327,0.3328,0.3328,0.3328,0.3327,0.3327,0.3326,0.3328,0.3325,0.3325,0.3325,0.3323,0.3323,0.3323,0,0,0,0,0,0.3325,0.3325,0.3326,0.3326,0.3327,0.3327,0.3327,0.3327,0.3327,0.3327,0.3327,0.3328,0.3326,0.3327,0.3327,0.3326,0.3325,0.3325,0.3325,0.3323,0.3323,0.3323,0,0,0,0,0,0,0.3325,0.3326,0.3326,0.3327,0.3327,0.3327,0.3327,0.3327,0.3327,0.3327,0.3327,0.3327,0.3326,0.3326,0.3327,0.3324,0.3325,0.3325,0.3325,0.3324,0.3324,0.3324,0.3328,0,0,0,0,0,0.3325,0.3326,0.3326,0.3326,0.3326,0.3326,0.3327,0.3327,0.3327,0.3327,0.3326,0.3326,0.3325,0.3325,0.3324,0.3323,0.3323,0.3322,0.3322,0.3322,0.3322,0.332,0.3319,0.3324,0.3324,0.3324,0,0,0.3326,0.3326,0.3326,0.3326,0.3326,0.3326,0.3327,0.3327,0.3326,0.3326,0.3326,0.3325,0.3325,0.3323,0.3323,0.3323,0.332,0.3322,0.3322,0.3322,0.332,0.3319,0.3319,0.3324,0.3324,0.3324,0,0,0.3326,0.3326,0.3326,0.3326,0.3326,0.3326,0.3326,0.3325,0.3325,0.3324,0.3324,0.3323,0.3323,0.3322,0.3321,0.3319,0.3319,0.3319,0.3318,0.3316,0.3315,0.3315,0.3313,0.3313,0.3319,0.3319,0.3319,0,0.3326,0.3326,0.3326,0.3326,0.3325,0.3325,0.3325,0.3324,0.3324,0.3323,0.3324,0.3322,0.3322,0.3319,0.3319,0.3319,0.3318,0.3319,0.3316,0.3315,0.3315,0.3313,0.3313,0.3319,0.3319,0.3319,0.3319,0,0.3326,0.3325,0.3325,0.3325,0.3324,0.3324,0.3323,0.3322,0.3322,0.3322,0.332,0.3319,0.3318,0.3318,0.3318,0.3315,0.3315,0.3316,0.3316,0.3314,0.3313,0.3312,0.3319,0.3319,0.3319,0.3319,0,0,0.3327,0.3325,0.3325,0.3324,0.3323,0.3323,0.3321,0.332,0.3319,0.3318,0.3317,0.3315,0.3315,0.3315,0.3314,0.3313,0.331,0.3313,0.3313,0.3312,0.3305,0.3305,0.3304,0.331,0.331,0.331,0.3305,0,0.3326,0.3325,0.3324,0.3322,0.3321,0.3321,0.3319,0.3318,0.3317,0.3316,0.3315,0.3313,0.3314,0.3313,0.3312,0.331,0.3308,0.3311,0.3307,0.3307,0.3307,0.3303,0.3303,0.3299,0.3305,0.3305,0.3305,0,0.3326,0.3325,0.3323,0.332,0.332,0.3319,0.3317,0.3316,0.3314,0.3313,0.3312,0.3311,0.3309,0.331,0.3306,0.3308,0.3306,0.3305,0.3305,0.3304,0.3306,0.3302,0.3298,0.3297,0.3304,0.3304,0.3304,0,0.3326,0.3324,0.3322,0.3321,0.3319,0.3318,0.3317,0.3315,0.3313,0.3311,0.331,0.3308,0.3307,0.3305,0.3303,0.3304,0.3299,0.33,0.3298,0.3298,0.3297,0.3297,0.3292,0.3297,0.3297,0.3297,0.3297,0,0.3325,0.3324,0.3322,0.332,0.3318,0.3317,0.3315,0.3314,0.3312,0.331,0.3309,0.3307,0.3305,0.3303,0.3302,0.3298,0.3298,0.3297,0.3296,0.3296,0.3296,0.3295,0.3295,0.3297,0.3297,0.3297,0.3297,0,0.3325,0.3323,0.3321,0.3319,0.3318,0.3316,0.3314,0.3312,0.3311,0.3308,0.3307,0.3305,0.3302,0.33,0.3297,0.3296,0.3291,0.3291,0.3292,0.3292,0.3289,0.3289,0.3282,0.3281,0.3288,0.3287,0.3287,0,0.3324,0.3323,0.332,0.3318,0.3317,0.3315,0.3313,0.3312,0.331,0.3307,0.3305,0.3302,0.3299,0.3294,0.3292,0.3289,0.3288,0.3286,0.3288,0.3287,0.3287,0.3287,0.3286,0.3286,0.3286,0.3286,0.3285,0,0.3323,0.3322,0.332,0.3317,0.3315,0.3313,0.331,0.3309,0.3307,0.3305,0.3301,0.3299,0.3295,0.3291,0.3287,0.3285,0.3285,0.3285,0.3284,0.3284,0.3284,0.3283,0.329,0.3285,0.3285,0.3285,0.3285,0.3285,0.3322,0.332,0.3318,0.3315,0.3313,0.331,0.3308,0.3306,0.3303,0.3299,0.3298,0.3294,0.3291,0.3286,0.3284,0.328,0.3281,0.328,0.3279,0.3279,0.3278,0.3285,0.328,0.328,0.328,0.328,0.328,0,0.332,0.3318,0.3315,0.3312,0.3309,0.3308,0.3305,0.3303,0.33,0.3297,0.3294,0.3289,0.3285,0.3282,0.3278,0.3275,0.3275,0.3274,0.3274,0.3274,0.3279,0.3279,0.3275,0.3275,0.3275,0.3275,0.3275,0.3275,0.3319,0.3315,0.3314,0.3309,0.3307,0.3303,0.3301,0.3298,0.3295,0.329,0.3287,0.3285,0.3281,0.3277,0.3273,0.3272,0.327,0.3269,0.3268,0.3273,0.3273,0.3274,0.3275,0.3269,0.3269,0.3263,0.3263,0.3263]},{"header":{"parameterUnit":"m.s-1","parameterCategory":1,"la1":30.2991,"la2":30.254,"lo1":-89.0895,"lo2":-89.0444,"dy":0.0017,"dx":0.0017,"nx":28,"ny":28,"refTime":"2025-07-27T03:00:00:Z","depth":0,"parameterNumber":3,"parameterNumberName":"V-component_of_WINDS"},"data":[0,0,0,0,0,0,0,0,0,0,0,0,0,0,0,0,0,0,0,0,0,0,0,0,0,0,0,0,0,0,0,0,0,0,0,0,0,0,0,0,0,0,0,0,0,0,0,0,0,0,0,0,0,0,0,0,0,0,2.8329,2.8329,0,2.8344,2.8344,2.8344,2.8285,2.8284,2.8282,2.828,2.8294,2.8296,2.8298,0,0,0,0,0,0,0,0,0,0,0,0,0,2.8248,2.825,2.8329,2.8329,2.833,2.8344,2.8344,2.8344,2.8286,2.8283,2.8281,2.8279,2.8294,2.8296,2.8298,0,0,0,0,0,0,0,0,0,0,0,0,0,2.8275,2.8251,2.8329,2.8302,2.83,2.8344,2.8344,2.8344,2.8286,2.8283,2.8281,2.8278,2.8293,2.8296,2.8299,2.8369,0,0,2.8308,2.8309,0,0,0,0,0,0,0,0,2.8274,2.8278,2.8306,2.8304,2.8302,2.831,2.8321,2.8353,2.8287,2.8291,2.828,2.8277,2.8301,2.8304,2.8312,2.837,2.837,2.8308,2.831,2.8311,2.8312,0,0,0,0,0,0,0,2.8272,2.8277,2.8335,2.8306,2.8304,2.8288,2.8289,2.8326,2.8311,2.8291,2.8286,2.8289,2.83,2.8309,2.8312,2.8371,2.8308,2.8311,2.8312,2.8314,2.8484,2.8487,0,0,0,0,0,0,2.8274,2.8276,2.8334,2.8335,2.8281,2.8292,2.8293,2.831,2.831,2.8308,2.8291,2.8286,2.8305,2.8308,2.8312,2.8393,2.8311,2.8314,2.8316,2.8482,2.8485,2.8488,0,0,0,0,0,0,2.8272,2.828,2.8334,2.8305,2.831,2.8296,2.8316,2.8312,2.8321,2.8311,2.8307,2.8304,2.8304,2.8308,2.8355,2.8393,2.8315,2.8318,2.8478,2.8483,2.8486,2.8556,0,0,0,0,0,0,2.827,2.828,2.8307,2.8306,2.8312,2.8377,2.8318,2.8314,2.8326,2.832,2.8322,2.8319,2.8302,2.8351,2.8358,2.8395,2.832,2.8475,2.848,2.8485,2.855,2.8562,2.8572,0,0,0,0,0,2.8268,2.8326,2.8309,2.8316,2.8346,2.8379,2.8383,2.8362,2.833,2.8356,2.8349,2.8319,2.8388,2.8356,2.8364,2.8403,2.8472,2.8479,2.8485,2.8545,2.856,2.8572,0,0,0,0,0,0,2.8332,2.8326,2.8306,2.8366,2.8374,2.8369,2.8403,2.8378,2.8395,2.8388,2.8361,2.8362,2.8413,2.8413,2.8378,2.847,2.8424,2.8432,2.8468,2.8481,2.8492,2.8491,2.8323,0,0,0,0,0,2.8353,2.8382,2.8374,2.8428,2.8433,2.8417,2.8431,2.8414,2.8421,2.8424,2.842,2.8428,2.845,2.8466,2.8487,2.855,2.8549,2.8581,2.8592,2.8601,2.8607,2.8639,2.8653,2.8508,2.8508,2.8508,0,0,2.8397,2.8397,2.8417,2.8441,2.8445,2.8473,2.842,2.8454,2.8474,2.8429,2.8472,2.847,2.8476,2.8532,2.8556,2.8533,2.8647,2.8609,2.8616,2.8618,2.8647,2.866,2.8673,2.8512,2.8512,2.8511,0,0,2.8492,2.8496,2.8539,2.8544,2.8551,2.854,2.8551,2.855,2.8547,2.859,2.8556,2.858,2.8621,2.8626,2.8634,2.8729,2.8702,2.8737,2.8793,2.8825,2.8836,2.8846,2.8878,2.889,2.8744,2.8744,2.8744,0,2.8545,2.8588,2.8565,2.86,2.8611,2.8571,2.8614,2.862,2.8633,2.8641,2.8615,2.8664,2.8666,2.8721,2.8744,2.8752,2.8762,2.8736,2.8836,2.8846,2.8855,2.8885,2.8898,2.8748,2.8748,2.8747,2.8747,0,2.8653,2.8683,2.8717,2.873,2.8745,2.8785,2.8766,2.8784,2.8766,2.8757,2.8801,2.8802,2.8821,2.8833,2.8815,2.8885,2.887,2.8841,2.8795,2.8873,2.8901,2.8913,2.8754,2.8753,2.8752,2.8751,0,0,2.8788,2.8787,2.88,2.8805,2.8809,2.8831,2.8868,2.8886,2.8901,2.8912,2.8941,2.8976,2.8948,2.8957,2.894,2.8968,2.9041,2.8935,2.8934,2.8953,2.9115,2.9136,2.915,2.9023,2.9025,2.9027,2.9114,0,2.8879,2.8942,2.8922,2.8985,2.9011,2.8973,2.9005,2.901,2.9003,2.9024,2.9016,2.904,2.9004,2.9008,2.9034,2.9027,2.9073,2.902,2.9049,2.905,2.9047,2.9165,2.9187,2.9269,2.9125,2.9127,2.9128,0,2.8994,2.9008,2.9074,2.9072,2.9082,2.9111,2.9125,2.9146,2.9151,2.9144,2.9154,2.913,2.9165,2.912,2.9167,2.9132,2.9142,2.914,2.9143,2.9143,2.9093,2.9167,2.9295,2.9307,2.9146,2.9144,2.9143,0,2.9084,2.9119,2.9162,2.9168,2.9167,2.9188,2.9188,2.9191,2.9203,2.9216,2.9223,2.924,2.9249,2.9262,2.9243,2.9212,2.9292,2.9246,2.9286,2.9287,2.9304,2.9303,2.9434,2.9313,2.9313,2.9313,2.9313,0,2.9186,2.9228,2.9202,2.9229,2.9274,2.925,2.9294,2.9291,2.9293,2.9317,2.9286,2.9309,2.9284,2.9305,2.9291,2.9331,2.9336,2.933,2.9325,2.9332,2.9332,2.9337,2.933,2.9316,2.9316,2.9315,2.9314,0,2.9294,2.9279,2.9323,2.9318,2.9318,2.9351,2.9346,2.937,2.9361,2.9392,2.9398,2.9383,2.9406,2.9389,2.9412,2.9402,2.9454,2.9443,2.9453,2.9449,2.9489,2.9485,2.9627,2.9643,2.9514,2.9516,2.9517,0,2.936,2.939,2.9388,2.9402,2.9405,2.9428,2.944,2.9417,2.943,2.9438,2.946,2.9481,2.9495,2.9534,2.9525,2.9542,2.9529,2.9577,2.9531,2.9536,2.9528,2.9525,2.9527,2.9586,2.9588,2.9589,2.959,0,2.9478,2.9468,2.9486,2.9502,2.9517,2.9528,2.9536,2.955,2.9526,2.9543,2.9566,2.9577,2.96,2.962,2.9634,2.9633,2.9608,2.9605,2.9615,2.9621,2.9625,2.9621,2.9476,2.9601,2.96,2.96,2.9599,2.9598,2.9565,2.9589,2.9591,2.9612,2.9616,2.9625,2.9646,2.9639,2.9658,2.9674,2.966,2.9687,2.969,2.9705,2.9708,2.9728,2.9708,2.9723,2.9727,2.973,2.9735,2.9623,2.9731,2.9731,2.973,2.973,2.973,0,2.9679,2.9678,2.9698,2.971,2.9726,2.9701,2.9709,2.9724,2.9748,2.9753,2.9768,2.9793,2.9812,2.9805,2.9821,2.9839,2.9827,2.9844,2.9841,2.9841,2.9753,2.9742,2.9852,2.9852,2.9852,2.9852,2.9852,2.9852,2.9741,2.978,2.9771,2.9812,2.9811,2.9837,2.9843,2.985,2.9854,2.9884,2.9899,2.9894,2.9893,2.9909,2.9925,2.9922,2.9929,2.995,2.9942,2.986,2.9848,2.9836,2.9825,2.9952,2.9952,3.0028,3.0029,3.003]}]]